Retour au catalogue

STARLINK-34852

ActifCommunicationsVLEO
NORAD 66135·PAYLOAD·🇺🇸 United States

Lancé Oct 22, 2025 depuis Vandenberg Space Force Base

Loading…

Prochains Passages (prochaines 24 heures)

TLE

FraisSource: CelesTrak SupGP

Époque: Sep 14, 2026, 20:52 UTC

1 66135C 25237X   26257.86993056 -.00003137  00000+0 -92729-4 0  2573
2 66135  53.1585 239.7754 0001304  88.1991 165.6028 15.34379447    17

Suivez STARLINK-34852 en temps réel avec AllMySat

Download on the App Store